| time (UTC) | temp F | wind direction | speed MPH | gust MPH | rain 1hr in | rain 24hr in | rain mn in | humidity % | barometer mb |
| 20260507101424 | 60 | 215 | 2.0 | 2.0 | 0.00 | 0.00 | 0.00 | 38 | 1013.2 |
| 20260507100422 | 61 | 278 | 2.0 | 2.0 | 0.00 | 0.00 | 0.00 | 40 | 1013.1 |
| 20260507095422 | 61 | 247 | 2.0 | 2.0 | 0.00 | 0.00 | 0.00 | 39 | 1013.2 |
| 20260507094422 | 61 | 253 | 2.0 | 3.0 | 0.00 | 0.00 | 0.00 | 39 | 1013.2 |
| 20260507093423 | 62 | 279 | 1.0 | 2.0 | 0.00 | 0.00 | 0.00 | 39 | 1013.3 |
| 20260507092423 | 62 | 302 | 2.0 | 2.0 | 0.00 | 0.00 | 0.00 | 39 | 1013.3 |
| 20260507091423 | 61 | 299 | 2.0 | 3.0 | 0.00 | 0.00 | 0.00 | 39 | 1013.3 |
| 20260507085420 | 62 | 271 | 2.0 | 2.0 | 0.00 | 0.00 | 0.00 | 38 | 1013.4 |
| 20260507084421 | 62 | 289 | 2.0 | 2.0 | 0.00 | 0.00 | 0.00 | 40 | 1013.5 |
| 20260507083422 | 63 | 288 | 2.0 | 2.0 | 0.00 | 0.00 | 0.00 | 40 | 1013.6 |
| 20260507082421 | 63 | 273 | 1.0 | 2.0 | 0.00 | 0.00 | 0.00 | 36 | 1013.6 |
| 20260507081422 | 64 | 269 | 0.0 | 2.0 | 0.00 | 0.00 | 0.00 | 34 | 1013.5 |
| 20260507080420 | 64 | 231 | 1.0 | 2.0 | 0.00 | 0.00 | 0.00 | 34 | 1013.8 |
| 20260507075419 | 64 | 241 | 0.0 | 2.0 | 0.00 | 0.00 | 0.00 | 37 | 1013.9 |
| 20260507074420 | 65 | 232 | 1.0 | 2.0 | 0.00 | 0.00 | 0.00 | 36 | 1014.1 |
| 20260507073420 | 64 | 280 | 1.0 | 3.0 | 0.00 | 0.00 | 0.00 | 36 | 1013.8 |
| 20260507072421 | 64 | 266 | 1.0 | 2.0 | 0.00 | 0.00 | 0.00 | 36 | 1013.8 |
| 20260507071419 | 65 | 267 | 2.0 | 2.0 | 0.00 | 0.00 | 0.00 | 35 | 1014.0 |
| 20260507070419 | 65 | 256 | 1.0 | 2.0 | 0.00 | 0.00 | 0.00 | 35 | 1013.6 |
| 20260507065420 | 66 | 267 | 2.0 | 3.0 | 0.00 | 0.00 | 0.00 | 34 | 1013.8 |
| 20260507064420 | 67 | 286 | 2.0 | 2.0 | 0.00 | 0.00 | 0.00 | 33 | 1013.9 |
| 20260507063420 | 67 | 316 | 0.0 | 2.0 | 0.00 | 0.00 | 0.00 | 34 | 1013.6 |
| 20260507062420 | 67 | 282 | 1.0 | 2.0 | 0.00 | 0.00 | 0.00 | 34 | 1013.8 |
| 20260507061417 | 68 | 269 | 2.0 | 2.0 | 0.00 | 0.00 | 0.00 | 32 | 1013.6 |
| 20260507060420 | 68 | 244 | 1.0 | 2.0 | 0.00 | 0.00 | 0.00 | 32 | 1013.6 |
| 20260507055422 | 69 | 283 | 1.0 | 2.0 | 0.00 | 0.00 | 0.00 | 32 | 1013.9 |
| 20260507054420 | 69 | 304 | 1.0 | 2.0 | 0.00 | 0.00 | 0.00 | 31 | 1013.8 |
| 20260507053420 | 70 | 321 | 0.0 | 2.0 | 0.00 | 0.00 | 0.00 | 30 | 1013.6 |
| 20260507052420 | 71 | 306 | 1.0 | 2.0 | 0.00 | 0.00 | 0.00 | 30 | 1013.6 |
| 20260507051422 | 71 | 295 | 2.0 | 2.0 | 0.00 | 0.00 | 0.00 | 30 | 1013.8 |
| 20260507050422 | 71 | 296 | 2.0 | 2.0 | 0.00 | 0.00 | 0.00 | 32 | 1013.5 |
| 20260507045420 | 71 | 284 | 2.0 | 2.0 | 0.00 | 0.00 | 0.00 | 32 | 1013.4 |
| 20260507044419 | 71 | 298 | 1.0 | 2.0 | 0.00 | 0.00 | 0.00 | 33 | 1013.4 |
| 20260507043421 | 71 | 282 | 2.0 | 2.0 | 0.00 | 0.00 | 0.00 | 34 | 1013.4 |
| 20260507042418 | 73 | 294 | 2.0 | 2.0 | 0.00 | 0.00 | 0.00 | 32 | 1013.4 |
| 20260507041419 | 73 | 287 | 2.0 | 2.0 | 0.00 | 0.00 | 0.00 | 31 | 1013.2 |
| 20260507040419 | 74 | 285 | 2.0 | 2.0 | 0.00 | 0.00 | 0.00 | 29 | 1013.1 |
| 20260507035417 | 74 | 260 | 2.0 | 2.0 | 0.00 | 0.00 | 0.00 | 28 | 1013.1 |
| 20260507034414 | 74 | 260 | 2.0 | 2.0 | 0.00 | 0.00 | 0.00 | 31 | 1013.1 |
| 20260507033413 | 74 | 271 | 1.0 | 2.0 | 0.00 | 0.00 | 0.00 | 29 | 1012.9 |
| 20260507032415 | 75 | 275 | 1.0 | 2.0 | 0.00 | 0.00 | 0.00 | 27 | 1012.9 |
| 20260507031415 | 75 | 269 | 2.0 | 2.0 | 0.00 | 0.00 | 0.00 | 27 | 1012.7 |
| 20260507030414 | 76 | 272 | 1.0 | 3.0 | 0.00 | 0.00 | 0.00 | 27 | 1012.4 |
| 20260507025414 | 77 | 267 | 2.0 | 3.0 | 0.00 | 0.00 | 0.00 | 26 | 1012.3 |
| 20260507024414 | 77 | 276 | 2.0 | 3.0 | 0.00 | 0.00 | 0.00 | 25 | 1012.4 |
| 20260507021413 | 79 | 268 | 2.0 | 5.0 | 0.00 | 0.00 | 0.00 | 24 | 1011.8 |
| 20260507020410 | 79 | 264 | 1.0 | 6.0 | 0.00 | 0.00 | 0.00 | 24 | 1011.9 |
| 20260507015411 | 79 | 301 | 2.0 | 3.0 | 0.00 | 0.00 | 0.00 | 24 | 1011.9 |
| 20260507014409 | 80 | 286 | 0.0 | 3.0 | 0.00 | 0.00 | 0.00 | 23 | 1012.1 |
| 20260507013409 | 81 | 266 | 1.0 | 2.0 | 0.00 | 0.00 | 0.00 | 23 | 1012.0 |
| 20260507012408 | 82 | 309 | 0.0 | 2.0 | 0.00 | 0.00 | 0.00 | 22 | 1011.9 |
| 20260507011409 | 83 | 291 | 2.0 | 3.0 | 0.00 | 0.00 | 0.00 | 21 | 1012.0 |
| 20260507010408 | 83 | 317 | 1.0 | 5.0 | 0.00 | 0.00 | 0.00 | 21 | 1012.2 |
| 20260507004408 | 84 | 296 | 2.0 | 4.0 | 0.00 | 0.00 | 0.00 | 20 | 1012.0 |
| 20260507003409 | 84 | 264 | 0.0 | 6.0 | 0.00 | 0.00 | 0.00 | 20 | 1011.8 |
| 20260507002409 | 83 | 308 | 4.0 | 5.0 | 0.00 | 0.00 | 0.00 | 21 | 1011.9 |
| 20260507001408 | 85 | 307 | 2.0 | 7.0 | 0.00 | 0.00 | 0.00 | 20 | 1011.7 |
| 20260507000408 | 85 | 314 | 2.0 | 6.0 | 0.00 | 0.00 | 0.00 | 20 | 1011.9 |
| 20260506235407 | 85 | 246 | 6.0 | 7.0 | 0.00 | 0.00 | 0.00 | 20 | 1011.8 |
| 20260506234414 | 84 | 329 | 5.0 | 7.0 | 0.00 | 0.00 | 0.00 | 21 | 1011.9 |
| 20260506233407 | 84 | 281 | 2.0 | 7.0 | 0.00 | 0.00 | 0.00 | 20 | 1011.9 |
| 20260506232408 | 84 | 297 | 3.0 | 5.0 | 0.00 | 0.00 | 0.00 | 21 | 1011.9 |
| 20260506225409 | 84 | 317 | 4.0 | 7.0 | 0.00 | 0.00 | 0.00 | 20 | 1012.5 |
| 20260506224408 | 83 | 315 | 4.0 | 6.0 | 0.00 | 0.00 | 0.00 | 20 | 1012.4 |
| 20260506223408 | 83 | 251 | 5.0 | 7.0 | 0.00 | 0.00 | 0.00 | 21 | 1012.5 |
| 20260506222407 | 85 | 273 | 1.0 | 7.0 | 0.00 | 0.00 | 0.00 | 21 | 1012.7 |
| 20260506221408 | 82 | 325 | 3.0 | 7.0 | 0.00 | 0.00 | 0.00 | 22 | 1012.8 |
| 20260506220408 | 82 | 314 | 6.0 | 8.0 | 0.00 | 0.00 | 0.00 | 22 | 1012.9 |
| 20260506213406 | 83 | 164 | 2.0 | 8.0 | 0.00 | 0.00 | 0.00 | 21 | 1013.0 |
| 20260506212406 | 82 | 316 | 2.0 | 9.0 | 0.00 | 0.00 | 0.00 | 22 | 1013.3 |
| 20260506211407 | 82 | 299 | 1.0 | 7.0 | 0.00 | 0.00 | 0.00 | 22 | 1013.3 |
| 20260506205407 | 82 | 177 | 2.0 | 7.0 | 0.00 | 0.00 | 0.00 | 23 | 1013.6 |
| 20260506204406 | 81 | 359 | 2.0 | 11.0 | 0.00 | 0.00 | 0.00 | 23 | 1013.9 |
| 20260506203407 | 80 | 24 | 9.0 | 9.0 | 0.00 | 0.00 | 0.00 | 24 | 1014.0 |
| 20260506202407 | 80 | 213 | 0.0 | 9.0 | 0.00 | 0.00 | 0.00 | 24 | 1014.2 |
| 20260506201411 | 81 | 323 | 5.0 | 8.0 | 0.00 | 0.00 | 0.00 | 24 | 1014.1 |
| 20260506200408 | 80 | 313 | 6.0 | 7.0 | 0.00 | 0.00 | 0.00 | 25 | 1014.1 |
| 20260506194407 | 79 | 323 | 4.0 | 10.0 | 0.00 | 0.00 | 0.00 | 26 | 1014.3 |
| 20260506193407 | 80 | 350 | 3.0 | 9.0 | 0.00 | 0.00 | 0.00 | 25 | 1014.3 |
| 20260506192407 | 81 | 280 | 2.0 | 4.0 | 0.00 | 0.00 | 0.00 | 25 | 1014.6 |
| 20260506191407 | 79 | 138 | 1.0 | 8.0 | 0.00 | 0.00 | 0.00 | 27 | 1014.9 |
| 20260506190406 | 78 | 254 | 3.0 | 8.0 | 0.00 | 0.00 | 0.00 | 28 | 1015.0 |
| 20260506184405 | 76 | 318 | 5.0 | 9.0 | 0.00 | 0.00 | 0.00 | 28 | 1015.4 |
| 20260506183404 | 77 | 354 | 2.0 | 7.0 | 0.00 | 0.00 | 0.00 | 28 | 1015.2 |
| 20260506182405 | 78 | 351 | 3.0 | 6.0 | 0.00 | 0.00 | 0.00 | 28 | 1015.5 |
| 20260506181405 | 76 | 213 | 4.0 | 6.0 | 0.00 | 0.00 | 0.00 | 29 | 1015.4 |
| 20260506180403 | 76 | 194 | 2.0 | 7.0 | 0.00 | 0.00 | 0.00 | 28 | 1015.2 |
| 20260506175405 | 76 | 332 | 2.0 | 4.0 | 0.00 | 0.00 | 0.00 | 30 | 1015.5 |
| 20260506174404 | 74 | 284 | 2.0 | 7.0 | 0.00 | 0.00 | 0.00 | 31 | 1015.5 |
| 20260506173404 | 74 | 306 | 2.0 | 9.0 | 0.00 | 0.00 | 0.00 | 32 | 1015.6 |
| 20260506172405 | 74 | 276 | 2.0 | 6.0 | 0.00 | 0.00 | 0.00 | 32 | 1015.7 |
| 20260506170403 | 73 | 281 | 2.0 | 7.0 | 0.00 | 0.00 | 0.00 | 32 | 1015.6 |
| 20260506165404 | 73 | 323 | 4.0 | 6.0 | 0.00 | 0.00 | 0.00 | 32 | 1015.5 |
| 20260506164405 | 74 | 236 | 2.0 | 5.0 | 0.00 | 0.00 | 0.00 | 33 | 1015.6 |
| 20260506163402 | 73 | 331 | 2.0 | 6.0 | 0.00 | 0.00 | 0.00 | 34 | 1015.6 |
| 20260506162402 | 72 | 334 | 3.0 | 5.0 | 0.00 | 0.00 | 0.00 | 34 | 1015.9 |
| 20260506161404 | 71 | 289 | 2.0 | 4.0 | 0.00 | 0.00 | 0.00 | 36 | 1015.8 |
| 20260506160401 | 70 | 283 | 0.0 | 5.0 | 0.00 | 0.00 | 0.00 | 37 | 1016.1 |
| 20260506153401 | 69 | 271 | 1.0 | 4.0 | 0.00 | 0.00 | 0.00 | 39 | 1015.7 |
| 20260506151401 | 67 | 256 | 3.0 | 4.0 | 0.00 | 0.00 | 0.00 | 41 | 1015.7 |
| 20260506150401 | 66 | 246 | 4.0 | 5.0 | 0.00 | 0.00 | 0.00 | 42 | 1015.6 |
| 20260506145401 | 65 | 239 | 2.0 | 5.0 | 0.00 | 0.00 | 0.00 | 44 | 1015.6 |
| 20260506144400 | 63 | 261 | 3.0 | 5.0 | 0.00 | 0.00 | 0.00 | 47 | 1015.6 |
| 20260506143400 | 62 | 255 | 2.0 | 6.0 | 0.00 | 0.00 | 0.00 | 48 | 1015.7 |
| 20260506142400 | 61 | 199 | 1.0 | 3.0 | 0.00 | 0.00 | 0.00 | 49 | 1015.5 |
| 20260506141350 | 60 | 256 | 3.0 | 3.0 | 0.00 | 0.00 | 0.00 | 50 | 1015.3 |
| 20260506140351 | 60 | 217 | 0.0 | 3.0 | 0.00 | 0.00 | 0.00 | 51 | 1015.3 |
| 20260506135350 | 59 | 232 | 1.0 | 3.0 | 0.00 | 0.00 | 0.00 | 51 | 1015.2 |
| 20260506134351 | 57 | 237 | 2.0 | 4.0 | 0.00 | 0.00 | 0.00 | 52 | 1015.1 |
| 20260506133350 | 56 | 210 | 1.0 | 4.0 | 0.00 | 0.00 | 0.00 | 53 | 1014.8 |
| 20260506132350 | 56 | 224 | 3.0 | 3.0 | 0.00 | 0.00 | 0.00 | 53 | 1014.9 |
| 20260506131349 | 55 | 208 | 1.0 | 4.0 | 0.00 | 0.00 | 0.00 | 53 | 1014.9 |
| 20260506130348 | 56 | 219 | 1.0 | 3.0 | 0.00 | 0.00 | 0.00 | 52 | 1014.6 |
| 20260506125349 | 55 | 181 | 2.0 | 3.0 | 0.00 | 0.00 | 0.00 | 53 | 1014.5 |
| 20260506124350 | 55 | 203 | 2.0 | 3.0 | 0.00 | 0.00 | 0.00 | 52 | 1014.3 |
| 20260506123349 | 55 | 225 | 1.0 | 3.0 | 0.00 | 0.00 | 0.00 | 52 | 1014.1 |
| 20260506122348 | 56 | 149 | 2.0 | 3.0 | 0.00 | 0.00 | 0.00 | 51 | 1014.3 |
| 20260506121347 | 56 | 232 | 2.0 | 3.0 | 0.00 | 0.00 | 0.00 | 50 | 1014.1 |
| 20260506120348 | 56 | 259 | 0.0 | 4.0 | 0.00 | 0.00 | 0.00 | 49 | 1014.0 |
| 20260506115349 | 56 | 186 | 2.0 | 3.0 | 0.00 | 0.00 | 0.00 | 49 | 1014.1 |
| 20260506114349 | 56 | 221 | 2.0 | 3.0 | 0.00 | 0.00 | 0.00 | 50 | 1014.2 |
| 20260506113347 | 56 | 263 | 0.0 | 2.0 | 0.00 | 0.00 | 0.00 | 49 | 1014.2 |
| 20260506112347 | 56 | 252 | 1.0 | 2.0 | 0.00 | 0.00 | 0.00 | 50 | 1014.0 |
| 20260506111348 | 56 | 210 | 2.0 | 3.0 | 0.00 | 0.00 | 0.00 | 49 | 1014.1 |
| 20260506110346 | 57 | 253 | 1.0 | 2.0 | 0.00 | 0.00 | 0.00 | 48 | 1014.1 |
| 20260506105336 | 57 | 184 | 2.0 | 3.0 | 0.00 | 0.00 | 0.00 | 48 | 1013.6 |
| 20260506104337 | 57 | 210 | 1.0 | 2.0 | 0.00 | 0.00 | 0.00 | 47 | 1013.9 |
| 20260506103338 | 57 | 211 | 0.0 | 3.0 | 0.00 | 0.00 | 0.00 | 46 | 1013.4 |
| 20260506102336 | 57 | 193 | 0.0 | 2.0 | 0.00 | 0.00 | 0.00 | 47 | 1013.8 |